Terminal Aerodrome Forecast
Issued by NWS

Home | Current Version | Previous Version | Text Only | Print | Product List | Glossary On
Versions: 1 2 3 4 5 6 7 8 9 10 11 12 13 14 15 16
000
FTUS46 KSEW 031120
TAFHQM
TAF
KHQM 031120Z 0312/0412 22004KT P6SM SCT010 OVC090
      TEMPO 0312/0315 5SM BR OVC010
     FM031500 23006KT 5SM BR OVC006
     FM031800 22007KT P6SM BKN015 BKN050
      TEMPO 0321/0401 SCT020 BKN050
     FM040600 30004KT P6SM OVC012=

USA.gov is the U.S. government's official web portal to all federal, state and local government web resources and services.